Location: Cartanal
(10.2709°N, 66.7075°W)
Time: 23:46:58
(UTC+00:00)

Daily predictions for brighter satellites

Satellite Brightness Start Highest point End
(mag) Time Altitude Azimuth Time Altitude Azimuth Time Altitude Azimuth
PSLV R/B 4.2 22:12:24 10° WNW 22:15:23 57° NNE 22:26:10 10° E
COSMOS 2455 3.5 22:17:01 10° S 22:22:27 36° ESE 22:27:52 10° NE
Thor Agena Rocket 4.0 22:18:37 10° S 22:23:50 70° WSW 22:29:02 10° NNW
Cosmos 2266 Rocket 3.9 22:18:22 10° N 22:24:22 69° E 22:30:21 10° S
Okean 1 4.0 22:21:34 10° SSE 22:24:43 28° E 22:27:52 10° NNE
Palapa 6 Rocket 3.2 22:24:20 10° SW 22:28:13 49° SSE 22:31:49 10° E
SWIFT 3.0 22:25:41 10° W 22:28:52 40° SSW 22:32:04 10° SE
Cosmos 2333 Rocket 3.9 22:31:03 10° SE 22:34:00 14° ESE 22:36:58 10° ENE
IRS-1C 4.2 22:32:32 10° SSE 22:37:51 88° WSW 22:43:10 10° NNW
Meteor 2-2 Rocket 4.3 22:32:12 10° S 22:37:53 63° E 22:43:27 10° NNE
COSMO-SKYMED 1 2.6 22:33:52 10° N 22:37:58 79° WNW 22:42:04 10° SSW
Cosmos 2221 4.3 22:36:18 10° ESE 22:37:58 12° E 22:39:21 11° ENE
SAR-Lupe-4 4.2 22:39:00 10° S 22:42:30 58° WSW 22:45:59 10° NNW
SL-24 R/B - RUBIN 2 4.3 22:37:17 10° SSW 22:43:29 89° WNW 22:49:04 10° NNE
USA 308 3.3 22:44:43 10° SE 22:45:53 14° ESE 22:46:05 14° ESE
BREEZE-M (TANK) 3.2 22:37:22 10° SSW 22:46:36 65° SE 22:49:08 15° NE
ATLAS 2A CENTAUR R/B 4.3 22:32:14 10° WNW 22:46:51 29° N 22:51:16 12° NE
Cosmos 2227 Rocket 3.3 22:43:18 10° NNE 22:47:21 20° ENE 22:51:22 10° ESE
NATO 3D Rocket 3.7 22:43:42 10° WNW 22:48:21 61° SSW 22:53:20 10° ESE
H-2A R/B 1.5 22:48:10 10° NNW 22:49:56 22° NNE 22:50:35 19° NE
YAOGAN 1 3.3 22:46:52 10° SE 22:50:36 30° ENE 22:54:19 10° NNE
Okean 1-7 Rocket 4.1 22:47:37 10° NNW 22:51:54 61° W 22:56:11 10° S
Cosmos 1898 Rocket 4.5 22:49:56 10° SSW 22:54:52 47° WNW 22:59:48 10° N
Cosmos 2322 Rocket 3.6 22:53:22 10° SE 22:57:08 18° ESE 22:58:40 17° E
USA 290 2.9 22:58:39 10° NNW 23:01:49 56° WSW 23:04:59 10° S
Meteor 2-6 Rocket 4.3 22:57:00 10° S 23:02:18 53° E 23:07:44 10° NNE
USA 59 Rocket 0.8 22:59:40 10° S 23:05:37 47° ESE 23:08:10 24° NE
Cosmos-2242 4.1 23:01:54 10° SSW 23:05:55 44° W 23:09:57 10° NNW
ATLAS CENTAUR R/B 0.3 23:03:54 10° NNW 23:06:54 65° ENE 23:09:49 10° SSE
Atlas Centaur 2 1.5 23:14:23 10° WSW 23:17:50 50° NNW 23:19:01 34° NNE
Orbus 21S 1.5 23:15:47 10° WNW 23:17:55 88° SW 23:18:55 37° ESE
Meteor 2-10 4.2 23:16:26 10° N 23:21:53 60° E 23:27:28 10° SSE
SL-16 R/B 2.1 23:19:02 10° SSW 23:24:41 81° ESE 23:28:28 22° NNE
Cosmos 1953 Rocket 3.9 23:21:00 10° NNW 23:25:24 66° W 23:29:48 10° S
Cosmos 1655 Rocket 4.4 23:20:41 10° NNW 23:26:47 62° W 23:32:55 10° S
Cosmos 1812 Rocket 3.4 23:22:47 10° S 23:27:04 63° E 23:28:25 40° NNE
Ariane H10+ 3.0 23:21:38 10° W 23:30:09 51° SSW 23:32:49 25° SE
NOAA 6 3.9 23:25:55 10° SSE 23:30:58 64° ENE 23:36:01 10° N
Cosmos 1867 4.0 23:26:31 10° N 23:30:47 38° NE 23:30:47 38° NE
OceanSat 1 rocket 4.5 23:26:50 10° SSE 23:31:38 75° ENE 23:36:23 10° N
NOSS 2-1 (C) 3.8 23:28:15 10° SSW 23:34:34 82° ESE 23:36:05 45° NNE
Cosmos 2285 Rocket 4.0 23:28:30 10° S 23:34:37 55° E 23:36:42 38° NE
Cosmos 2297 Rocket 3.9 23:34:56 10° NW 23:39:57 34° WSW 23:44:59 10° SSW
IUS-18 SRM-1 3.1 23:42:32 10° SW 23:45:38 64° SE 23:46:46 51° E
Cosmos 1437 Rocket 4.4 23:42:42 10° S 23:44:06 22° S 23:44:06 22° S
Delta 168 4.2 23:43:38 10° W 23:47:58 49° SSW 23:51:25 23° SE
NOSS 3-1 (C) 2.4 23:43:59 10° SSW 23:48:25 84° WNW 23:48:32 83° NNW
Cosmos 2278 4.0 23:42:57 10° SSW 23:48:36 67° WNW 23:51:22 31° N
Cosmos 2315 Rocket 3.9 23:43:43 10° S 23:49:56 67° E 23:51:28 50° NE
